Wind_Speed
2 2 3 2 2 3 3 6 9 9 9 9 9 7 7 8 8 5 7 10 9 9 12 12 12 13 15 16 20 23 26 29 30 30 30 31 32 31 29 26 23 22 23 23 20 16 15 16 14 13 14 13 11 9 8 7 6 5 6 6 8 9 10 11 10 10 11 12 13 14 15 15 14 12 11 11 10 10 10 11 11 11 10 10 10 10 10
4 6 6 3 4 3 4 3 2 6 9 9 7 5 4 7 5 4 9 12 5 3 8 10 9 13 17 20 23 25 26 29 31 30 30 30 31 30 29 27 25 24 24 23 20 18 18 17 15 15 14 13 10 9 7 6 6 6 6 8 10 11 13 14 13 14 15 15 15 15 14 13 12 11 10 10 10 10 10 11 11 11 10 10 10 11 11
5 6 6 6 4 3 5 4 3 3 8 6 5 4 4 5 3 2 9 9 3 3 6 11 15 20 21 21 23 25 26 29 32 31 30 31 32 32 31 29 27 26 25 24 21 20 19 17 15 14 13 11 10 8 8 8 7 6 8 9 11 13 15 16 15 14 15 15 14 14 13 12 11 11 10 10 10 10 10 10 11 11 11 11 12 13 14
3 4 6 6 5 5 7 5 4 3 6 4 3 3 3 5 7 8 8 5 5 5 8 13 17 21 20 19 22 25 26 30 32 32 32 33 34 34 32 31 30 28 26 24 22 21 20 18 15 13 11 10 8 8 8 7 5 8 10 10 12 14 16 16 15 14 14 14 13 13 12 11 11 10 10 9 9 9 9 10 10 10 11 12 13 14 15
2 3 4 5 5 6 3 1 1 1 1 2 4 2 1 5 8 9 5 5 6 7 10 12 14 16 18 22 27 30 29 30 31 34 36 36 35 34 32 31 31 29 27 25 23 22 21 18 15 12 10 9 7 7 8 5 5 10 11 11 13 15 16 15 14 14 13 13 13 12 11 11 11 10 9 9 9 9 9 9 9 9 11 12 13 13 14
2 4 4 3 4 3 4 4 2 3 1 3 4 2 3 4 4 3 3 3 9 12 13 14 15 16 20 25 30 33 35 33 31 32 36 37 36 34 32 31 30 29 27 25 23 22 19 18 17 13 10 8 8 8 8 4 7 12 12 11 13 14 15 14 14 14 13 12 12 12 12 12 11 10 10 10 10 10 9 9 9 10 11 12 12 13 14
2 2 4 2 1 4 6 5 3 4 4 4 3 1 2 3 1 1 0 4 11 13 13 15 16 17 20 24 27 30 35 36 35 34 36 35 34 32 31 31 30 28 27 25 24 22 19 18 18 15 10 8 8 9 8 5 10 14 13 12 13 14 14 14 13 13 12 11 12 12 12 11 10 10 10 10 11 10 9 9 10 11 12 12 13 14 15
3 3 3 2 5 5 4 4 2 3 3 3 3 2 2 5 3 3 5 5 7 10 14 17 18 19 21 23 25 31 35 37 37 36 35 34 33 32 32 31 30 28 27 25 24 22 20 19 18 14 10 8 10 11 9 8 13 15 13 12 13 13 14 13 14 14 12 12 12 12 11 10 9 10 10 10 10 10 9 10 11 11 12 13 14 15 15
3 4 2 2 4 4 3 3 3 4 3 4 5 3 4 5 5 6 8 6 6 12 18 21 23 25 21 14 16 27 32 33 34 34 34 34 33 32 31 31 29 28 26 24 23 22 20 20 17 12 8 9 11 11 10 12 17 15 12 12 13 14 15 15 15 14 13 11 11 10 9 8 9 10 10 10 11 10 9 10 11 12 13 15 16 17 17
3 5 1 1 2 4 5 5 5 4 3 4 5 3 3 5 7 11 11 9 9 12 17 24 27 24 14 5 11 24 28 28 30 32 32 33 33 32 31 30 28 26 25 25 23 20 19 20 15 9 8 9 11 11 13 17 17 15 14 15 16 17 17 16 15 14 12 10 10 10 10 10 10 11 11 11 12 11 10 11 13 15 15 17 18 19 19
2 4 3 3 3 5 6 6 5 3 2 3 3 4 3 5 11 18 15 12 13 14 21 28 26 16 7 6 14 26 29 26 28 31 32 32 30 29 30 30 28 26 24 24 22 19 20 19 13 9 9 9 10 13 16 18 17 17 18 18 18 18 17 16 15 13 12 11 10 11 11 12 13 13 13 13 13 12 12 13 15 16 16 17 18 19 19
4 5 3 3 3 3 3 3 4 4 5 4 6 2 5 6 16 26 24 20 20 22 27 27 20 13 9 11 21 31 30 26 28 31 32 31 30 28 28 27 27 27 26 24 22 20 19 16 13 11 9 9 12 16 18 18 18 19 19 18 18 17 16 16 15 14 13 12 12 12 13 14 14 14 14 14 13 12 13 14 15 15 15 15 17 18 18
4 5 3 2 4 4 3 4 7 11 8 6 5 5 6 4 15 26 27 26 28 31 32 26 17 10 8 14 29 35 31 28 30 30 30 31 30 30 28 27 28 29 26 23 21 19 17 14 12 11 10 11 16 19 19 19 19 19 19 18 18 17 16 16 15 14 14 13 13 14 14 14 15 15 14 13 12 13 13 13 14 14 15 15 15 17 18
4 3 3 0 4 4 5 7 9 11 7 2 4 5 5 4 17 22 22 24 28 31 31 23 15 11 12 22 36 36 32 33 34 32 31 32 31 31 31 31 32 30 26 22 20 19 17 14 13 12 12 16 19 20 19 19 20 19 19 19 18 17 17 16 15 15 15 14 14 15 14 13 13 14 13 12 12 12 12 12 13 14 15 15 16 17 19
2 2 3 2 3 5 12 14 7 5 5 3 4 3 4 6 20 23 21 23 26 28 24 17 16 21 26 33 38 36 35 36 35 34 34 33 32 33 34 34 32 27 24 23 22 20 17 14 12 12 14 18 21 21 20 20 20 19 19 18 18 17 17 17 16 15 15 15 14 14 13 12 12 13 13 12 12 12 11 11 12 14 16 16 17 19 21
3 2 2 4 4 5 12 11 3 4 6 1 1 0 2 9 19 23 23 24 27 29 24 20 23 29 34 38 39 38 38 38 37 36 35 34 34 35 35 34 29 25 25 25 21 19 17 14 12 13 16 18 21 21 20 20 20 20 19 18 18 18 17 17 16 16 15 14 14 13 12 11 11 12 12 11 12 12 11 11 13 15 17 17 18 20 22
3 4 5 5 4 3 6 4 2 0 4 2 1 2 7 13 20 24 24 26 29 30 27 25 28 32 36 39 40 40 40 39 38 38 37 36 36 34 32 31 28 27 27 24 20 19 18 15 14 16 17 17 19 20 20 20 20 19 19 19 18 18 17 17 16 15 15 14 13 12 12 11 10 11 11 11 12 12 12 13 14 17 18 18 19 20 21
2 2 2 2 2 2 2 4 1 1 3 5 4 4 9 16 21 24 26 29 30 31 30 29 31 33 37 39 38 39 41 39 38 38 37 35 34 34 33 32 29 28 27 24 21 21 20 17 17 18 18 17 17 19 20 20 19 19 19 19 18 18 17 16 15 15 14 14 14 13 12 11 10 11 11 11 13 13 13 14 16 18 18 19 19 20 20
3 2 2 2 1 1 1 3 2 1 4 7 7 7 11 16 21 25 28 31 32 31 31 31 32 36 39 40 39 40 41 40 39 38 37 35 35 35 34 32 30 28 26 24 23 22 20 19 18 19 19 18 19 20 20 20 19 19 18 18 18 17 17 16 15 15 14 14 14 13 13 12 12 13 13 13 14 15 15 15 17 18 18 18 19 20 20
2 3 4 2 1 1 1 3 4 4 4 5 6 9 12 16 21 25 28 30 33 33 32 32 34 38 41 42 42 42 41 41 40 38 36 37 37 35 33 32 30 28 26 24 23 22 21 21 20 19 19 19 20 20 20 19 19 19 18 18 17 17 16 16 16 15 14 14 15 14 14 14 14 14 15 14 15 16 16 16 16 17 18 18 19 20 20
1 2 4 2 0 1 2 3 4 4 3 3 5 9 12 17 22 26 28 30 33 34 34 34 36 40 42 43 44 44 43 41 40 39 38 37 36 35 34 32 30 28 26 24 23 22 22 22 20 20 20 20 20 20 20 19 19 19 19 18 17 17 17 16 16 16 15 15 15 15 15 16 16 16 16 15 15 16 16 16 16 17 18 19 20 20 20
1 3 5 5 3 1 3 5 5 5 4 4 6 10 13 17 22 27 29 30 31 33 34 34 37 41 43 44 44 45 44 42 41 40 39 37 35 34 34 32 30 27 25 23 22 21 21 21 21 21 21 21 21 20 19 19 18 17 18 18 17 17 17 17 17 17 17 17 16 16 16 17 17 18 18 17 15 15 15 16 16 17 18 19 20 19 19
3 5 10 11 4 0 4 7 7 7 7 6 8 10 13 17 22 27 30 32 31 31 33 35 37 40 42 42 44 45 44 42 41 39 37 36 35 35 34 33 31 28 25 23 22 21 22 22 22 22 22 23 22 21 20 19 17 15 15 17 17 18 18 17 18 17 17 17 17 16 17 16 16 17 17 17 17 16 16 16 17 17 18 19 19 19 19
3 3 11 11 3 2 8 9 8 8 8 7 8 10 12 16 22 26 29 31 32 32 33 35 37 38 38 38 40 43 44 42 40 38 35 33 34 34 33 32 30 27 25 24 23 22 22 23 23 24 24 24 22 21 20 18 15 14 14 15 17 18 19 19 19 18 18 18 17 17 17 16 15 15 16 18 19 19 18 17 17 18 18 18 18 19 19
1 5 10 7 3 8 12 10 9 8 6 5 7 10 12 15 18 22 26 29 31 33 34 35 36 37 39 38 38 41 43 42 39 37 36 34 35 35 33 31 29 27 25 24 23 22 22 24 26 26 25 24 23 21 19 17 14 13 13 14 16 18 19 20 20 19 18 18 17 17 16 16 15 15 15 17 20 21 21 20 20 19 19 19 18 19 19
2 8 10 8 9 13 12 9 9 8 6 3 4 9 12 13 14 19 23 26 29 32 34 36 35 35 38 39 38 39 41 41 39 37 36 35 35 34 31 29 27 26 25 24 23 22 24 27 28 27 26 25 23 21 18 16 14 12 12 13 15 17 19 19 20 20 19 18 18 17 16 15 16 16 16 17 20 21 22 22 21 20 19 19 18 18 19
8 12 11 9 10 11 9 7 7 8 7 3 3 8 13 15 16 20 23 25 28 30 31 33 34 35 37 38 37 37 39 40 39 37 35 34 33 31 29 28 27 26 25 23 23 25 27 29 29 27 26 25 22 20 18 16 14 12 12 13 15 17 18 18 19 19 19 19 18 18 17 16 16 16 17 17 18 19 19 20 20 20 19 18 17 17 17
14 11 5 3 7 11 9 6 6 8 7 4 5 10 14 16 18 22 23 24 27 29 29 30 33 36 38 37 37 37 38 38 37 35 34 33 31 29 28 28 27 25 24 24 25 27 29 29 28 27 25 24 22 20 18 16 15 13 12 13 15 17 18 18 18 18 19 18 18 17 17 17 16 16 16 17 17 17 18 18 18 18 18 17 16 16 16
10 6 5 3 9 12 9 6 7 7 5 5 8 13 15 17 19 22 24 25 27 30 31 32 34 36 38 38 39 39 38 36 35 34 32 30 29 28 28 27 25 23 23 25 28 29 30 29 27 26 25 23 21 20 19 17 15 13 12 13 14 16 17 18 18 18 18 18 17 17 16 16 16 16 16 17 16 16 17 17 17 17 17 16 16 15 15
7 7 7 8 10 9 8 8 9 7 6 9 12 14 15 17 19 22 24 26 28 30 32 33 33 34 35 37 37 37 36 35 35 33 30 28 29 29 28 26 25 25 26 28 29 29 29 28 27 25 24 23 22 21 20 18 15 13 12 12 13 14 16 18 18 18 18 17 17 17 16 16 16 16 17 17 17 17 17 17 17 17 17 16 16 15 15
10 10 10 10 9 9 9 10 10 8 8 11 13 14 15 17 19 22 24 25 27 29 30 31 33 33 34 33 33 34 34 34 34 31 29 29 30 28 26 27 28 29 29 29 29 29 28 27 26 25 24 23 23 23 21 19 16 14 13 13 13 14 16 17 17 18 17 17 16 16 16 16 16 16 17 18 18 17 17 17 16 16 15 15 14 14 14
14 14 12 11 11 11 11 11 10 10 10 10 11 13 14 14 16 19 21 23 25 27 28 29 31 32 32 33 33 33 33 33 32 31 30 29 27 25 25 27 28 28 28 27 27 27 27 26 25 24 24 24 24 23 21 18 16 14 14 15 16 16 16 17 17 18 17 16 16 15 15 15 15 15 17 18 18 17 16 15 14 13 13 12 11 11 11
13 14 13 12 13 13 13 12 11 11 11 10 10 11 12 13 14 17 19 22 23 24 26 28 30 30 32 33 33 33 33 33 32 31 29 27 26 26 27 28 28 27 26 26 26 25 24 24 23 23 24 23 23 21 19 17 15 13 14 16 17 17 17 17 18 18 17 17 16 15 14 13 13 14 16 16 16 15 14 13 12 11 10 9 8 8 8
7 6 5 7 8 9 10 11 12 12 12 11 11 11 11 12 13 16 18 21 23 24 26 27 29 30 32 33 33 34 35 35 33 30 27 27 28 28 27 27 27 26 26 25 25 24 23 22 22 23 23 22 21 19 17 16 14 13 13 15 18 19 18 18 19 19 18 17 16 15 13 12 11 12 14 14 14 13 11 10 9 8 7 6 6 5 5
4 2 1 6 7 6 6 7 10 10 10 10 10 10 10 10 12 15 18 20 23 25 26 26 28 30 31 33 33 34 34 33 31 28 28 30 29 27 26 27 27 26 25 25 24 24 23 22 22 23 22 21 20 18 17 16 14 13 13 15 18 19 19 20 20 19 18 17 16 15 13 11 10 10 11 12 12 11 9 8 6 5 4 3 2 2 2
4 1 3 8 11 9 6 6 7 7 7 8 8 8 8 8 10 12 16 19 22 24 25 26 27 29 30 32 32 33 32 30 27 27 29 30 27 25 26 27 27 26 26 25 24 23 23 23 24 23 22 21 20 19 17 16 15 14 14 16 19 20 20 21 20 18 18 17 16 14 12 11 10 9 10 12 13 11 9 7 6 4 3 3 2 2 1
3 2 4 9 12 11 8 7 7 7 7 7 7 7 8 8 9 10 14 17 20 22 23 24 26 27 29 30 30 30 29 26 26 28 30 28 27 27 27 26 25 25 25 23 23 23 23 24 24 23 22 21 20 18 17 16 16 16 17 18 19 20 21 21 19 17 17 16 15 13 11 11 10 10 11 14 13 11 9 7 7 6 6 6 5 5 4
2 3 6 11 13 12 10 9 8 7 7 7 7 7 8 9 9 10 12 14 17 19 21 23 24 25 27 28 28 28 28 28 28 28 28 27 28 28 26 25 25 24 22 20 20 21 23 24 24 23 22 21 19 17 16 16 17 17 18 18 19 19 20 19 18 17 16 15 14 13 13 12 11 12 14 14 12 10 9 8 7 6 6 6 6 6 6
4 4 7 13 15 14 13 12 10 8 7 7 8 8 8 8 9 10 11 12 14 17 20 22 23 25 27 28 28 28 29 30 29 27 26 27 28 26 24 23 22 20 18 18 19 20 21 22 22 22 21 21 19 16 15 16 18 19 19 18 18 17 16 16 15 15 15 15 15 14 13 13 13 13 14 13 11 10 9 8 7 6 6 6 6 6 6
5 6 8 11 14 15 15 13 11 9 8 7 7 8 8 9 9 9 10 11 13 15 18 21 23 25 27 28 28 28 28 29 28 27 27 28 27 24 23 22 21 19 18 18 18 19 21 21 21 21 21 21 19 17 16 18 20 21 19 18 17 15 15 15 15 15 15 15 15 14 13 13 14 14 14 13 13 12 11 10 9 9 9 8 7 7 6
6 8 9 10 12 14 15 14 12 10 9 7 6 7 8 9 9 10 10 11 12 14 16 18 21 24 26 27 27 28 28 27 27 27 27 27 26 25 23 22 21 21 20 18 18 19 20 21 22 21 21 21 20 18 17 19 21 20 18 17 17 16 15 14 14 15 15 15 15 14 14 14 14 14 14 14 14 14 13 13 12 12 12 11 10 8 7
7 9 11 11 11 13 14 13 11 10 10 9 8 7 8 8 9 9 10 10 12 13 14 15 17 20 23 24 25 25 25 26 27 27 26 25 24 24 22 21 20 20 20 19 19 19 19 19 20 21 21 21 21 19 18 20 21 20 19 18 17 16 15 14 14 14 14 15 15 14 14 15 14 14 14 15 15 14 14 14 14 13 13 12 11 10 9
8 9 10 10 11 12 12 10 10 10 11 10 9 8 8 9 9 10 11 12 12 13 14 14 14 16 20 23 25 25 25 25 26 26 25 23 22 20 19 19 20 21 20 20 20 20 18 18 19 19 19 20 20 20 19 20 20 19 18 17 16 16 15 15 15 15 15 16 16 16 16 16 16 15 15 15 15 14 14 14 14 13 13 12 11 10 10
8 9 8 8 9 11 10 10 10 10 10 10 10 9 9 10 10 11 13 14 14 14 15 15 15 15 17 21 25 26 26 25 25 25 25 24 23 21 19 19 20 20 21 21 21 20 19 19 19 18 18 18 18 18 19 19 19 19 18 17 16 16 16 16 16 16 17 18 18 18 18 18 18 17 17 16 15 15 15 15 15 14 13 13 12 12 12
8 8 8 9 10 10 10 9 9 8 10 11 11 10 9 10 10 11 14 16 16 16 16 16 16 16 17 20 22 23 22 22 23 23 24 25 24 23 22 20 19 19 19 20 20 19 18 18 18 19 19 19 19 19 19 19 20 20 19 18 17 17 17 17 17 18 18 19 20 20 19 19 19 19 19 18 18 17 16 16 16 16 15 14 13 13 13
7 7 8 9 9 9 9 9 8 8 10 12 12 11 10 10 11 12 12 14 17 18 18 16 16 16 18 19 20 20 19 19 20 21 23 23 21 20 20 19 18 17 18 18 19 18 18 17 18 19 19 20 20 20 20 20 21 21 21 20 19 19 18 18 18 18 19 20 20 21 21 21 21 21 21 21 20 19 18 17 17 17 16 15 15 15 14
7 7 7 7 8 9 10 10 10 11 11 12 12 12 11 11 12 12 12 13 16 19 18 15 14 15 16 17 18 19 19 20 22 23 23 22 19 19 19 17 15 15 16 17 17 17 16 17 17 18 19 20 21 21 22 22 23 23 23 23 22 22 21 20 19 19 19 19 19 20 21 22 22 22 22 22 22 21 20 19 18 17 17 17 17 17 17
7 7 8 8 9 10 11 11 11 12 11 11 11 12 12 12 12 13 13 14 16 17 16 14 13 14 15 17 18 17 17 18 20 23 24 22 20 20 20 18 15 14 16 17 17 17 17 17 18 19 20 22 23 24 26 26 27 27 28 27 27 26 25 23 21 20 20 20 20 20 21 21 22 22 22 22 21 21 20 20 20 19 19 19 20 20 21
7 7 8 10 11 12 12 12 12 11 10 10 11 14 15 15 14 14 15 15 16 16 15 15 15 14 14 15 17 17 17 16 17 18 20 21 20 20 19 18 17 16 17 17 17 17 17 17 17 18 20 21 23 24 25 25 26 26 27 28 29 29 28 26 24 23 22 22 22 22 22 22 22 22 23 22 22 22 22 22 22 22 23 23 24 25 25
9 9 10 11 12 12 12 12 11 10 10 11 14 17 18 17 17 17 16 15 15 16 17 17 17 15 14 15 16 17 17 17 15 15 16 18 19 20 19 19 18 17 17 16 16 16 16 16 16 17 18 19 20 20 21 21 21 21 22 24 26 27 28 28 27 26 25 24 24 24 24 24 24 24 24 25 25 24 24 24 25 25 26 26 27 27 27
10 11 11 11 11 10 10 10 10 10 11 13 16 18 18 17 16 16 14 13 13 15 16 17 18 18 18 17 17 17 18 17 16 15 15 16 18 20 20 19 18 18 17 16 15 16 16 17 17 17 18 19 19 19 19 19 19 20 20 21 23 25 26 28 28 28 28 27 27 26 26 26 26 27 27 27 28 28 28 28 28 29 29 29 29 28 28
10 11 12 12 11 11 10 10 10 11 13 16 17 17 16 15 14 14 13 13 14 13 13 14 16 18 18 17 17 17 18 18 17 17 17 17 18 19 20 19 19 18 18 17 16 15 15 16 16 17 18 19 19 19 19 19 19 19 19 20 21 23 25 26 27 28 29 29 30 30 30 29 29 29 29 29 30 30 31 31 31 31 30 30 30 29 29
Wind_Direction
297 342 301 281 139 147 135 149 168 168 165 168 164 175 183 153 148 210 210 178 180 191 183 178 171 161 157 157 157 155 151 151 151 150 150 151 154 158 158 155 153 152 157 163 165 168 173 172 175 185 187 187 194 205 216 219 209 193 181 163 151 145 138 131 126 122 116 110 105 101 97 94 92 86 79 72 64 57 51 48 46 41 36 31 25 22 21
8 9 352 14 111 117 61 63 176 167 166 175 165 159 166 147 152 197 170 169 196 209 175 171 152 141 142 144 147 149 151 151 152 152 153 154 156 159 158 156 156 161 166 169 170 171 171 171 176 182 184 188 196 204 206 194 183 177 164 150 144 139 130 123 118 114 112 107 104 101 97 95 91 84 77 70 63 58 54 50 46 42 36 30 26 24 23
359 5 11 19 56 113 99 60 3 121 136 133 117 130 140 110 81 101 136 149 228 258 153 138 132 136 139 142 148 152 155 156 155 155 157 158 160 161 161 159 161 168 171 171 171 171 171 173 176 181 186 190 193 196 191 187 186 172 154 146 142 135 128 123 119 116 113 108 104 101 98 94 89 81 74 67 61 58 55 52 49 46 41 37 35 34 32
311 355 23 2 9 65 88 64 24 107 129 127 132 146 156 143 128 114 115 146 224 208 147 135 138 143 145 150 155 155 158 161 159 158 160 162 163 164 163 162 166 171 171 170 172 173 172 174 176 183 191 192 194 197 194 195 180 153 150 147 140 134 130 127 125 120 114 109 106 103 98 92 84 76 69 63 60 57 57 56 53 49 47 45 45 44 43
245 332 13 342 11 61 76 13 37 161 143 119 127 113 199 174 144 133 149 200 190 158 147 146 149 154 159 164 165 163 163 164 163 163 163 165 167 167 164 165 170 172 171 171 173 173 172 172 176 186 195 198 205 202 200 200 155 145 152 149 139 134 132 132 129 122 116 113 109 103 95 87 80 76 70 65 62 59 59 61 58 55 55 53 52 52 50
207 300 333 351 41 104 223 251 198 198 208 133 137 164 212 192 149 145 227 199 151 148 158 164 165 168 170 170 169 167 164 164 165 167 168 169 170 168 166 169 171 170 169 169 171 171 170 175 183 187 191 206 214 202 202 195 148 150 156 147 139 136 135 135 130 122 117 113 106 99 93 87 83 79 74 70 68 68 68 68 65 62 60 57 55 52 50
130 337 1 16 228 226 248 279 254 215 202 168 142 100 202 191 139 69 164 159 156 153 156 160 160 161 162 163 165 167 168 169 171 172 172 173 171 169 168 169 170 169 169 167 168 169 171 180 188 185 185 207 212 200 205 188 151 155 153 141 140 140 137 134 128 120 116 111 104 99 94 90 86 82 79 79 79 78 77 72 67 63 60 56 54 52 51
117 79 63 195 241 261 288 313 278 186 169 165 116 73 223 207 184 152 138 150 158 135 130 140 146 146 147 152 163 172 175 178 180 179 179 177 175 172 172 172 173 172 171 169 170 173 177 185 189 185 187 206 206 203 208 177 153 154 149 139 142 142 137 131 124 120 117 112 107 102 98 94 90 88 88 88 86 81 75 71 66 63 61 59 58 57 56
119 118 146 247 303 313 301 290 238 175 170 179 145 125 245 223 183 155 140 143 151 130 126 132 136 136 134 136 167 179 180 183 184 184 183 180 176 174 175 177 176 173 172 174 174 175 182 187 187 185 188 203 210 212 198 165 154 152 145 137 136 134 131 125 122 122 121 117 111 105 102 100 96 96 93 90 86 81 76 73 71 68 67 68 67 66 66
96 103 112 288 322 278 248 241 235 216 203 188 148 111 289 251 185 164 153 150 152 137 131 133 132 132 132 143 189 187 185 186 184 180 178 177 176 175 176 176 173 172 175 177 173 174 183 183 179 179 191 206 216 204 174 158 151 143 134 128 125 126 125 122 121 122 121 118 113 110 109 105 100 98 95 91 89 86 81 79 78 77 76 76 74 71 69
118 123 146 184 205 241 242 233 238 232 178 165 113 71 310 251 182 167 159 155 159 154 147 144 139 140 159 196 193 187 186 185 182 176 172 172 173 175 176 176 174 174 176 174 170 176 182 175 167 174 192 207 207 181 158 148 140 131 128 125 123 124 122 120 120 121 120 119 116 113 111 105 100 98 96 93 92 89 86 84 83 83 80 77 75 71 68
157 145 159 211 222 236 243 233 218 178 144 99 80 96 271 241 180 172 169 164 166 164 156 153 155 168 190 192 183 180 178 176 176 174 171 171 172 172 173 176 175 173 170 167 168 176 177 169 165 173 185 195 184 163 148 139 133 130 129 127 125 124 121 121 121 120 120 120 117 114 110 106 103 100 96 95 94 92 89 88 87 85 80 76 74 71 66
148 142 145 247 248 235 234 213 174 154 130 75 100 184 254 234 175 177 177 170 168 167 165 167 173 182 192 173 165 166 167 166 169 172 171 171 173 172 172 173 169 164 162 164 168 173 174 172 172 176 180 175 163 151 143 139 136 133 131 129 128 127 125 125 124 123 123 122 118 113 109 106 105 102 98 97 95 92 91 89 87 84 79 75 73 70 66
136 147 129 81 269 237 173 153 153 149 137 119 200 225 286 204 175 178 180 176 172 170 172 176 170 153 149 153 154 158 163 165 164 165 166 165 166 166 166 165 162 160 162 167 171 175 175 174 175 176 173 162 152 146 145 144 139 136 134 133 132 132 131 130 129 127 125 122 118 113 110 109 107 103 102 100 96 93 92 89 86 82 79 76 73 71 68
112 54 83 113 257 203 148 133 135 169 176 209 238 279 321 190 178 175 175 178 176 173 174 172 154 143 145 150 153 157 162 163 162 163 165 164 163 163 162 161 162 165 167 168 171 173 170 168 170 171 167 158 150 148 149 146 141 139 139 138 138 138 136 136 133 131 128 123 119 116 114 112 107 103 104 103 98 95 92 88 86 83 80 77 75 73 70
127 107 167 191 248 211 163 145 137 206 190 177 349 230 156 171 176 174 172 174 177 177 174 162 150 148 149 152 155 157 158 160 160 160 162 162 160 161 162 162 165 170 168 164 164 164 159 157 162 167 167 161 153 152 152 149 146 145 143 142 143 141 140 139 136 133 130 126 123 121 117 114 109 106 106 105 101 99 95 90 87 85 82 79 76 74 72
161 176 212 232 283 267 195 189 357 17 183 182 18 184 176 172 175 176 172 170 174 178 175 161 151 152 153 154 156 157 157 159 159 159 159 158 158 160 164 166 170 172 168 165 164 159 153 154 159 164 169 166 157 155 156 152 149 148 146 144 145 142 141 140 138 136 133 130 128 125 120 117 112 109 109 108 106 103 99 93 88 85 83 80 76 74 72
214 214 241 259 309 336 204 212 307 15 190 194 194 204 191 179 179 181 178 174 174 176 173 163 156 156 156 155 156 158 158 158 159 159 158 158 160 164 167 169 170 169 165 164 161 153 149 154 161 166 172 174 166 159 155 150 149 149 147 146 145 143 142 141 140 140 138 135 133 129 124 123 119 115 114 113 109 105 101 95 89 85 83 80 76 74 71
191 236 315 322 333 3 146 181 199 194 188 194 198 204 199 187 183 184 182 179 177 175 173 169 163 160 161 159 157 158 159 159 160 161 160 160 163 165 167 169 169 167 164 161 155 149 147 156 165 168 169 170 164 156 150 148 149 149 148 147 146 142 142 142 142 143 142 139 137 133 130 129 125 120 118 115 110 104 98 92 89 87 84 81 78 75 71
160 252 285 302 28 29 150 167 185 193 195 206 206 199 197 191 185 184 184 183 179 175 175 176 170 164 165 165 162 160 161 162 163 164 163 163 163 165 167 169 169 169 166 161 155 151 151 158 165 167 165 164 160 153 148 148 150 149 148 148 144 141 142 142 142 144 145 143 141 138 135 133 128 123 120 116 111 104 96 90 88 87 86 81 76 73 71
47 275 276 275 54 316 249 193 192 192 191 210 207 196 194 190 183 180 181 183 183 180 179 179 175 168 167 169 167 165 164 165 166 166 165 164 165 168 169 169 170 170 167 161 156 153 154 159 164 165 163 160 155 150 147 149 150 150 149 147 144 142 142 142 142 145 146 145 144 142 139 135 130 124 120 114 109 105 100 95 91 88 85 80 74 70 70
271 251 219 186 167 242 221 191 179 170 166 182 190 187 187 186 183 180 177 176 179 181 181 181 178 172 169 170 169 168 168 168 168 168 166 165 167 169 169 169 171 170 166 162 160 158 157 159 163 164 161 156 151 149 149 151 153 153 151 148 145 143 142 141 143 145 145 145 145 143 141 138 134 128 123 116 111 109 105 101 95 89 85 81 74 69 67
250 245 198 183 169 118 174 167 159 156 156 165 173 176 182 186 184 183 180 176 173 173 174 175 175 171 168 168 169 169 168 170 170 169 167 167 168 170 171 170 169 167 165 164 165 162 159 159 163 164 160 154 151 151 151 153 157 159 155 150 146 143 142 142 142 143 144 145 145 144 142 141 138 134 129 123 117 112 106 102 97 91 85 81 76 71 67
302 224 185 189 206 147 152 153 151 154 158 166 168 166 176 184 182 182 183 181 177 174 171 171 173 172 167 165 168 169 168 169 170 169 170 171 171 173 173 172 169 168 168 168 168 165 162 162 164 163 158 154 153 154 154 156 160 160 157 153 148 144 142 141 141 142 143 143 143 144 143 140 138 136 134 128 121 113 107 103 99 94 89 83 77 73 71
300 162 169 184 181 146 143 142 144 146 150 167 172 166 170 179 182 182 182 181 180 179 176 173 174 175 171 168 168 169 168 168 170 170 169 171 173 174 173 171 171 172 171 170 170 168 165 165 165 162 158 156 156 156 156 158 159 158 157 156 151 145 142 141 140 141 141 140 141 141 138 137 136 135 134 129 121 114 110 105 101 96 92 86 80 75 74
191 168 157 143 135 138 139 140 143 141 137 150 185 181 176 178 184 187 184 181 178 178 176 171 169 172 174 173 170 168 167 167 169 170 170 171 173 173 170 170 174 175 172 170 172 171 167 166 165 162 160 159 159 159 158 159 159 156 155 156 153 148 144 142 141 141 139 138 138 138 136 137 136 133 130 124 117 113 111 108 105 101 96 90 83 78 76
149 155 143 126 133 143 145 147 150 149 145 147 193 188 181 180 183 182 180 177 174 171 171 172 171 170 172 173 171 168 167 166 167 168 170 171 171 169 169 173 176 174 172 173 174 171 167 166 165 164 162 161 161 161 162 162 161 158 155 154 152 150 146 144 142 140 138 137 137 138 139 140 138 133 127 122 117 113 110 108 106 104 99 94 88 81 76
141 141 117 109 162 162 150 141 154 156 150 160 194 185 177 175 175 172 169 167 166 165 169 176 178 175 172 173 174 172 169 166 166 167 166 166 167 169 171 174 175 173 173 175 173 170 168 167 167 166 165 164 165 167 168 168 167 164 160 156 153 151 149 146 143 140 138 137 137 138 140 142 142 138 131 126 122 117 112 109 106 104 101 98 93 87 81
133 107 55 96 158 158 143 131 148 155 153 168 179 176 173 170 165 162 161 161 163 166 169 173 176 176 174 174 176 175 170 166 166 166 165 166 169 171 172 173 173 173 175 175 172 171 171 171 170 170 170 170 172 173 174 175 174 174 171 165 160 156 152 149 146 143 141 138 137 138 140 143 144 142 137 133 129 123 117 114 110 106 103 100 96 91 86
112 90 89 116 140 147 140 137 144 149 155 166 167 165 170 172 164 156 157 160 164 168 170 171 173 174 173 173 174 175 173 170 169 170 171 172 172 172 172 172 172 174 176 175 174 174 175 175 175 175 174 175 176 177 179 179 180 182 182 177 170 162 156 154 153 151 147 143 139 139 140 142 143 142 140 138 135 129 123 119 114 110 106 101 97 93 88
119 108 109 121 131 136 136 139 144 148 152 162 165 161 164 170 167 159 158 161 164 167 169 171 174 175 175 174 173 173 172 171 171 173 172 171 172 175 176 175 175 176 177 176 176 176 178 179 179 179 179 178 177 179 180 180 182 184 185 184 178 169 162 160 161 161 157 152 147 143 141 140 140 141 142 141 138 133 127 122 117 113 109 104 100 96 90
123 116 118 125 131 136 139 143 149 153 155 164 171 167 168 175 175 169 166 167 168 168 169 172 174 175 174 174 174 172 172 172 172 172 171 172 177 180 178 176 178 180 179 179 179 179 181 182 182 182 181 179 178 178 179 181 183 185 185 185 182 175 168 166 168 168 167 163 159 153 146 140 138 140 143 144 140 135 131 126 122 118 113 109 104 97 91
130 123 130 142 144 145 151 157 160 160 162 169 173 172 174 181 183 178 174 173 172 171 171 172 174 174 174 174 174 174 173 171 170 172 174 176 176 174 173 175 179 181 181 182 182 182 184 184 183 183 182 180 179 179 180 183 188 188 185 184 183 179 174 171 172 172 172 171 168 162 153 145 141 142 144 144 141 137 134 130 127 123 118 113 106 98 91
138 113 134 162 155 143 151 164 168 166 168 172 175 176 178 180 181 180 177 174 174 174 174 174 174 174 174 174 175 175 174 172 173 175 177 174 171 171 173 176 179 181 182 183 183 184 186 186 184 183 181 180 179 181 183 189 195 196 191 186 183 180 177 175 175 176 176 174 172 168 161 154 149 148 150 150 147 143 140 136 133 129 123 116 106 97 90
170 74 147 186 170 135 128 150 161 163 167 170 175 179 180 181 182 182 179 177 177 177 177 176 175 175 175 176 177 177 177 178 179 178 175 171 170 173 175 177 181 185 186 186 187 189 191 191 189 185 181 181 183 186 190 195 201 203 198 188 182 180 180 178 178 179 179 177 176 175 169 163 159 159 162 164 163 160 156 153 149 146 140 132 120 100 79
189 126 181 189 176 155 133 132 141 147 151 154 161 170 175 178 183 183 182 181 181 180 179 178 177 177 178 180 180 180 181 183 183 178 173 172 174 176 177 180 184 187 186 186 188 191 193 194 193 189 185 184 186 189 195 201 205 205 198 188 182 182 183 183 182 182 182 183 183 181 174 169 170 173 175 175 176 177 177 176 179 186 195 210 235 255 273
214 197 205 196 181 168 157 145 136 132 133 136 140 147 153 161 171 179 183 184 184 184 184 182 180 180 182 183 183 183 185 187 184 177 175 176 178 178 179 181 184 186 187 186 186 186 188 190 191 190 188 187 186 188 194 200 202 201 195 187 182 183 185 186 187 188 190 192 192 188 181 179 182 183 181 180 182 185 190 195 204 215 225 236 248 256 262
182 179 201 200 190 181 175 165 154 143 136 134 134 135 140 146 154 164 175 182 185 187 187 186 184 183 183 183 184 185 186 186 182 179 179 181 180 178 181 184 186 189 190 188 183 181 182 185 188 189 188 187 184 183 186 192 194 193 189 185 184 186 188 191 194 197 199 201 199 193 187 185 186 184 182 183 186 192 197 204 213 225 233 241 251 258 262
145 156 194 201 198 193 187 179 172 167 157 147 145 149 152 153 153 156 166 177 183 187 190 188 185 184 184 184 185 186 187 186 184 182 183 183 181 182 185 188 190 192 193 190 187 185 185 187 190 190 188 187 185 182 183 185 185 184 183 184 186 189 193 198 201 203 203 203 201 197 192 189 189 189 190 192 196 203 209 218 228 239 246 256 265 268 269
165 166 186 201 205 202 196 188 182 182 180 168 154 152 159 166 165 163 167 174 180 187 194 193 188 186 187 187 187 188 189 189 188 186 184 182 183 185 187 189 191 194 194 193 194 194 192 193 195 194 191 190 191 189 186 183 181 180 181 184 188 193 198 203 208 209 210 210 210 208 204 198 196 198 201 204 209 216 224 234 245 250 255 264 274 278 280
184 180 186 199 208 208 202 195 187 182 182 180 166 154 157 167 172 171 171 173 177 184 193 197 195 192 190 189 189 190 190 189 186 183 183 183 184 186 188 190 191 193 193 194 196 194 192 193 195 196 195 195 195 194 191 186 184 185 186 187 190 195 200 204 207 209 210 211 213 213 210 205 205 208 211 214 220 227 235 243 252 257 260 265 270 275 281
179 185 189 192 199 203 200 194 187 183 182 181 173 159 153 160 169 173 173 172 172 176 183 192 197 196 193 189 186 184 184 183 183 185 188 190 190 190 190 190 190 191 193 193 190 186 184 185 189 192 194 194 195 195 193 190 190 193 195 196 199 202 205 208 211 212 212 212 212 212 211 212 214 216 219 222 228 235 240 246 254 259 262 265 268 271 276
171 180 185 185 191 195 192 185 185 187 185 180 175 168 161 159 165 173 177 177 176 176 178 181 188 193 193 190 186 183 181 182 185 190 194 197 198 198 197 194 192 192 193 192 189 186 184 182 181 183 186 188 190 192 192 193 195 198 201 205 210 214 216 220 223 223 223 223 221 219 219 222 224 226 228 231 235 240 244 250 257 262 266 268 269 271 275
172 179 183 181 183 187 188 189 191 190 184 178 176 174 170 167 169 178 184 183 180 179 179 180 184 188 190 189 188 186 185 187 191 195 196 196 198 202 204 200 196 195 195 193 191 190 188 187 186 187 188 191 193 197 199 201 205 207 210 214 219 223 227 231 234 234 234 233 231 229 230 231 231 233 235 237 241 245 250 256 261 265 268 269 269 273 277
180 183 186 185 185 188 194 199 197 187 180 178 174 170 170 170 169 175 184 188 185 179 177 178 179 177 175 177 180 183 186 189 192 195 195 195 196 199 201 200 200 201 199 196 194 195 196 197 199 199 200 202 206 209 212 214 215 215 217 220 224 228 232 236 238 239 237 234 232 233 235 235 236 237 240 243 247 252 257 262 265 267 269 269 269 271 275
190 186 188 190 189 188 191 192 188 182 180 179 171 164 163 167 166 166 174 183 182 176 172 172 174 171 169 170 174 179 186 192 195 197 198 200 200 198 196 196 201 205 204 200 200 203 206 208 208 208 209 210 212 215 218 220 221 222 225 228 230 234 237 240 240 239 237 235 234 234 235 237 239 241 244 247 250 254 259 264 266 268 268 266 265 265 268
190 184 186 188 187 185 183 183 181 181 184 185 178 167 161 165 170 168 164 166 170 171 170 172 176 179 181 184 185 185 190 196 200 201 204 207 207 202 197 195 199 205 207 207 209 211 212 214 215 216 217 218 220 222 225 227 228 230 232 234 236 239 243 244 243 239 237 237 237 237 237 240 243 245 247 249 252 254 258 262 266 268 267 264 262 263 266
190 186 182 180 182 183 184 183 183 184 189 196 193 178 165 164 172 174 169 168 173 178 182 187 191 191 194 200 203 202 201 203 204 204 205 208 209 207 205 205 207 209 210 212 215 217 217 218 220 222 224 226 228 229 231 233 234 235 237 238 239 242 245 246 244 240 239 241 243 244 246 248 249 249 250 251 253 255 259 262 266 268 269 267 267 268 270
192 190 182 179 181 184 185 186 187 185 185 188 184 175 168 165 167 171 173 176 181 186 193 199 201 200 200 205 209 210 211 213 214 212 211 210 209 207 208 212 215 214 214 215 217 218 218 219 221 224 227 227 227 228 231 234 236 238 239 239 240 242 245 246 246 245 246 249 252 254 256 258 258 257 256 256 258 260 262 264 266 268 271 273 274 274 273
192 193 189 185 185 187 190 192 193 191 186 179 175 174 173 170 169 170 173 179 185 190 194 197 200 202 205 208 210 210 211 214 219 221 218 215 211 207 208 212 217 219 221 222 222 220 220 222 224 225 225 223 222 225 229 233 237 241 242 242 240 241 242 244 245 247 250 253 256 258 258 259 260 261 262 262 264 265 265 265 267 270 273 275 276 275 274
193 194 193 191 191 194 198 202 205 205 198 189 185 184 184 183 181 182 182 184 189 195 197 198 198 198 199 202 205 208 210 214 218 220 219 217 213 209 208 212 218 223 226 227 225 224 225 224 223 222 223 223 225 227 230 234 239 245 247 247 246 245 244 244 245 248 252 255 258 260 261 262 263 264 266 267 268 267 266 267 270 273 275 276 276 274 273
196 196 195 193 193 196 200 206 210 209 202 196 195 198 200 200 200 201 200 197 198 203 206 204 201 198 197 200 206 211 216 219 220 218 217 217 215 213 215 219 223 224 223 222 222 223 225 224 222 222 224 226 228 231 233 236 240 245 247 249 250 249 249 250 251 253 255 257 258 260 262 264 265 266 267 268 268 269 269 270 272 274 275 275 275 274 272
Height
1440 1441 1441 1440 1437 1437 1436 1436 1437 1439 1442 1442 1439 1442 1448 1450 1448 1449 1458 1465 1461 1461 1465 1465 1465 1467 1468 1472 1477 1480 1483 1486 1489 1492 1494 1496 1500 1503 1505 1506 1509 1512 1514 1517 1519 1520 1522 1524 1526 1528 1530 1531 1532 1532 1532 1533 1533 1533 1532 1532 1532 1532 1533 1533 1533 1533 1533 1533 1533 1533 1534 1534 1534 1535 1534 1534 1534 1533 1533 1532 1531 1530 1529 1528 1526 1525 1524
1437 1439 1441 1439 1437 1439 1441 1444 1444 1440 1440 1441 1439 1444 1452 1450 1445 1446 1454 1463 1462 1460 1462 1464 1466 1469 1471 1475 1479 1481 1484 1487 1489 1492 1494 1496 1499 1502 1504 1507 1510 1512 1514 1516 1518 1519 1522 1524 1526 1528 1530 1530 1531 1532 1532 1533 1533 1533 1533 1532 1533 1533 1533 1533 1533 1533 1534 1534 1534 1534 1534 1535 1535 1535 1535 1535 1534 1534 1533 1532 1532 1531 1530 1529 1527 1526 1525
1438 1439 1441 1442 1440 1439 1441 1448 1452 1445 1442 1445 1444 1449 1454 1451 1451 1457 1461 1465 1467 1462 1461 1465 1468 1470 1473 1476 1479 1482 1485 1487 1488 1491 1494 1496 1499 1502 1504 1507 1509 1511 1513 1516 1517 1519 1522 1525 1527 1529 1530 1531 1531 1531 1532 1533 1533 1533 1532 1533 1533 1533 1533 1533 1534 1534 1534 1534 1534 1535 1535 1536 1536 1536 1536 1535 1535 1534 1534 1533 1533 1532 1531 1530 1528 1527 1526
1442 1441 1443 1444 1441 1440 1440 1446 1451 1447 1443 1446 1447 1450 1452 1448 1451 1463 1464 1461 1462 1460 1460 1464 1467 1470 1473 1476 1479 1481 1484 1486 1488 1489 1492 1495 1498 1500 1502 1505 1508 1510 1513 1515 1517 1520 1523 1525 1528 1529 1530 1531 1531 1531 1532 1532 1532 1532 1533 1533 1533 1533 1533 1534 1534 1535 1535 1535 1535 1536 1536 1536 1536 1536 1536 1536 1536 1535 1535 1534 1534 1533 1532 1531 1530 1529 1527
1444 1445 1447 1445 1440 1440 1443 1446 1452 1453 1451 1450 1449 1451 1454 1449 1450 1456 1452 1446 1450 1456 1459 1462 1466 1469 1471 1473 1475 1478 1481 1485 1487 1488 1490 1494 1496 1498 1501 1504 1506 1509 1512 1514 1517 1520 1523 1525 1527 1529 1530 1531 1531 1531 1532 1532 1532 1532 1533 1534 1533 1533 1534 1534 1535 1535 1535 1536 1536 1536 1537 1537 1537 1537 1537 1537 1537 1536 1536 1535 1535 1534 1533 1532 1531 1530 1528
1444 1448 1447 1445 1445 1445 1448 1451 1454 1455 1454 1452 1448 1448 1451 1451 1450 1451 1448 1445 1448 1453 1455 1458 1461 1463 1465 1468 1471 1475 1478 1483 1487 1489 1490 1492 1495 1498 1500 1503 1505 1509 1511 1514 1517 1520 1523 1525 1526 1527 1530 1531 1532 1532 1532 1532 1532 1533 1533 1533 1533 1533 1534 1535 1535 1536 1536 1537 1537 1537 1537 1538 1538 1538 1538 1538 1538 1537 1537 1537 1536 1535 1534 1533 1532 1531 1530
1445 1451 1448 1448 1451 1449 1451 1454 1454 1453 1454 1452 1450 1451 1452 1452 1451 1452 1453 1452 1450 1450 1452 1456 1459 1462 1466 1470 1474 1477 1479 1482 1485 1488 1490 1492 1495 1497 1500 1502 1506 1509 1511 1513 1517 1520 1523 1525 1526 1527 1528 1530 1532 1533 1532 1532 1532 1533 1533 1533 1533 1534 1534 1535 1536 1537 1537 1538 1538 1538 1538 1539 1539 1539 1539 1539 1539 1539 1538 1538 1537 1536 1535 1534 1533 1532 1531
1448 1454 1456 1455 1453 1452 1453 1454 1452 1451 1452 1451 1448 1448 1449 1450 1451 1451 1452 1454 1452 1452 1455 1459 1462 1465 1468 1472 1475 1478 1480 1481 1482 1485 1488 1490 1493 1496 1499 1502 1504 1508 1511 1513 1516 1520 1522 1524 1526 1527 1528 1529 1532 1533 1533 1532 1532 1532 1533 1533 1533 1534 1535 1536 1537 1538 1538 1539 1539 1539 1539 1540 1540 1540 1540 1540 1540 1540 1540 1539 1538 1537 1536 1535 1535 1534 1533
1450 1454 1459 1455 1452 1452 1451 1448 1448 1447 1447 1446 1443 1441 1443 1448 1450 1449 1451 1454 1454 1453 1455 1459 1463 1466 1470 1476 1478 1478 1479 1481 1482 1483 1485 1488 1492 1496 1499 1502 1504 1507 1510 1513 1516 1519 1521 1524 1526 1527 1528 1529 1532 1533 1533 1532 1532 1532 1532 1533 1533 1534 1535 1536 1537 1539 1540 1540 1540 1540 1540 1540 1541 1541 1541 1541 1541 1541 1541 1540 1540 1539 1538 1537 1536 1535 1535
1454 1453 1456 1457 1456 1452 1443 1440 1443 1443 1442 1444 1443 1440 1442 1445 1446 1447 1448 1452 1454 1453 1455 1460 1463 1467 1473 1476 1476 1475 1477 1479 1481 1483 1486 1489 1493 1496 1499 1502 1505 1508 1510 1513 1517 1519 1521 1523 1525 1527 1528 1529 1531 1533 1533 1532 1532 1532 1532 1533 1534 1535 1536 1537 1538 1540 1541 1541 1541 1541 1541 1542 1542 1542 1542 1542 1542 1543 1543 1542 1541 1540 1539 1539 1538 1537 1536
1454 1449 1450 1455 1454 1445 1437 1437 1442 1443 1443 1443 1443 1445 1443 1440 1442 1445 1446 1450 1454 1453 1452 1455 1459 1465 1471 1471 1469 1470 1474 1477 1480 1483 1487 1491 1495 1497 1500 1502 1504 1508 1511 1514 1517 1520 1521 1523 1525 1526 1527 1529 1531 1533 1533 1532 1532 1532 1533 1534 1535 1536 1537 1538 1539 1541 1541 1542 1542 1542 1542 1543 1543 1543 1543 1543 1544 1544 1544 1543 1542 1542 1541 1540 1539 1538 1538
1448 1446 1447 1451 1446 1439 1439 1441 1442 1444 1444 1442 1447 1452 1444 1434 1435 1440 1441 1444 1449 1451 1452 1453 1454 1456 1458 1457 1460 1466 1471 1475 1480 1484 1486 1490 1494 1497 1500 1503 1504 1508 1512 1515 1518 1521 1522 1524 1525 1525 1526 1528 1531 1532 1532 1532 1532 1532 1533 1535 1536 1537 1538 1539 1540 1542 1542 1543 1543 1543 1544 1544 1544 1545 1545 1545 1545 1546 1545 1545 1544 1543 1543 1542 1541 1540 1539
1445 1444 1444 1447 1443 1438 1441 1443 1441 1443 1445 1447 1451 1449 1438 1432 1434 1437 1438 1441 1444 1447 1449 1449 1449 1450 1450 1450 1456 1464 1470 1475 1480 1484 1487 1490 1492 1496 1500 1503 1506 1509 1512 1515 1518 1521 1524 1525 1526 1525 1526 1528 1530 1532 1532 1532 1533 1533 1534 1535 1537 1538 1539 1540 1541 1542 1543 1544 1544 1545 1545 1546 1546 1546 1546 1546 1547 1547 1547 1546 1546 1545 1544 1543 1542 1542 1541
1446 1444 1442 1445 1443 1437 1438 1442 1443 1444 1445 1447 1445 1438 1433 1434 1436 1437 1440 1443 1444 1446 1448 1448 1449 1451 1452 1454 1459 1465 1469 1474 1478 1483 1486 1490 1493 1496 1499 1503 1506 1509 1512 1516 1519 1523 1525 1525 1526 1526 1526 1528 1529 1531 1532 1533 1533 1534 1535 1537 1538 1539 1540 1542 1543 1543 1544 1545 1545 1546 1546 1547 1547 1547 1547 1548 1548 1548 1548 1547 1547 1546 1545 1545 1544 1543 1543
1447 1446 1444 1444 1439 1434 1436 1440 1442 1444 1442 1439 1437 1434 1434 1435 1435 1437 1441 1443 1445 1448 1450 1451 1452 1453 1454 1458 1462 1466 1469 1473 1477 1482 1485 1489 1493 1497 1500 1503 1506 1509 1512 1516 1519 1522 1524 1525 1526 1527 1527 1528 1529 1531 1533 1534 1534 1535 1536 1537 1539 1540 1541 1542 1543 1544 1545 1546 1546 1547 1548 1548 1549 1548 1549 1550 1550 1550 1549 1549 1548 1547 1547 1546 1546 1545 1544
1439 1438 1438 1437 1433 1433 1435 1436 1436 1438 1437 1435 1435 1435 1435 1435 1436 1438 1440 1442 1445 1448 1450 1452 1454 1454 1456 1459 1462 1466 1470 1474 1477 1481 1485 1488 1492 1497 1501 1504 1507 1510 1513 1516 1519 1522 1523 1525 1527 1527 1528 1529 1530 1532 1533 1535 1535 1536 1537 1538 1540 1541 1542 1543 1544 1545 1546 1547 1548 1548 1549 1549 1550 1550 1550 1551 1551 1551 1550 1550 1549 1548 1548 1548 1547 1546 1546
1436 1434 1434 1435 1435 1436 1436 1434 1434 1435 1434 1435 1435 1435 1435 1436 1437 1438 1439 1441 1445 1447 1449 1453 1455 1456 1458 1461 1463 1467 1471 1474 1478 1481 1485 1488 1492 1497 1501 1504 1507 1510 1513 1516 1519 1521 1523 1525 1527 1528 1529 1530 1531 1532 1534 1535 1536 1537 1538 1539 1540 1542 1543 1544 1545 1546 1547 1548 1549 1549 1550 1550 1551 1551 1552 1552 1552 1552 1552 1551 1550 1550 1549 1549 1548 1548 1547
1437 1435 1435 1437 1437 1435 1435 1435 1435 1434 1434 1435 1435 1435 1436 1436 1436 1438 1439 1441 1443 1446 1449 1452 1455 1458 1460 1463 1466 1469 1472 1476 1480 1482 1485 1489 1492 1496 1500 1503 1506 1510 1513 1515 1518 1520 1523 1526 1527 1529 1530 1531 1532 1533 1534 1535 1536 1537 1538 1540 1541 1543 1544 1545 1546 1547 1548 1548 1549 1550 1551 1552 1552 1553 1553 1553 1553 1553 1553 1552 1552 1551 1551 1550 1550 1549 1549
1433 1432 1435 1437 1436 1435 1435 1435 1434 1434 1435 1435 1435 1435 1436 1436 1436 1438 1440 1441 1444 1447 1449 1452 1455 1458 1460 1463 1467 1470 1473 1477 1481 1483 1486 1489 1492 1496 1499 1502 1506 1510 1513 1515 1517 1519 1522 1525 1527 1528 1530 1531 1532 1533 1534 1535 1537 1538 1540 1541 1542 1543 1544 1545 1546 1547 1548 1549 1550 1551 1552 1553 1553 1554 1554 1555 1554 1554 1554 1554 1553 1553 1552 1552 1552 1551 1551
1434 1434 1436 1437 1436 1435 1435 1434 1434 1435 1435 1435 1435 1435 1435 1436 1437 1438 1440 1442 1444 1446 1449 1452 1454 1457 1460 1463 1466 1470 1474 1477 1481 1484 1486 1489 1492 1496 1499 1502 1506 1509 1512 1514 1517 1519 1521 1524 1526 1528 1530 1531 1533 1533 1534 1536 1537 1539 1541 1542 1543 1544 1545 1546 1547 1548 1549 1550 1551 1551 1552 1554 1554 1555 1556 1556 1556 1555 1555 1555 1555 1554 1554 1554 1553 1553 1552
1438 1437 1437 1437 1436 1435 1435 1435 1435 1435 1435 1435 1436 1436 1436 1437 1437 1439 1441 1443 1444 1446 1449 1451 1453 1456 1460 1462 1464 1468 1473 1477 1480 1484 1486 1489 1492 1496 1499 1503 1506 1509 1512 1514 1516 1519 1521 1523 1526 1528 1530 1531 1533 1534 1535 1537 1539 1540 1541 1543 1544 1545 1546 1547 1548 1549 1550 1551 1552 1552 1553 1554 1555 1556 1557 1557 1557 1556 1556 1557 1556 1556 1555 1555 1555 1555 1554
1437 1436 1435 1436 1435 1434 1434 1435 1435 1435 1436 1437 1436 1436 1437 1437 1438 1439 1441 1443 1446 1448 1450 1451 1453 1456 1459 1462 1465 1468 1472 1476 1480 1484 1486 1489 1493 1496 1500 1503 1506 1509 1512 1514 1516 1519 1521 1523 1526 1528 1530 1531 1533 1535 1537 1538 1540 1541 1542 1543 1545 1546 1547 1548 1549 1550 1551 1552 1553 1554 1555 1555 1556 1557 1557 1558 1558 1558 1558 1558 1557 1557 1557 1556 1556 1556 1556
1434 1433 1433 1434 1434 1434 1434 1435 1436 1436 1437 1438 1437 1437 1438 1438 1439 1440 1441 1442 1446 1449 1451 1454 1455 1457 1460 1464 1466 1469 1473 1477 1480 1483 1487 1489 1493 1497 1500 1503 1506 1510 1512 1515 1517 1519 1521 1523 1526 1528 1530 1532 1534 1536 1538 1539 1541 1543 1543 1544 1545 1546 1548 1549 1550 1551 1552 1553 1554 1555 1556 1557 1557 1557 1557 1558 1559 1559 1559 1559 1558 1558 1558 1558 1558 1558 1558
1433 1432 1433 1434 1434 1434 1434 1435 1436 1437 1438 1438 1439 1439 1439 1440 1441 1442 1442 1443 1445 1448 1451 1455 1457 1459 1463 1467 1469 1471 1474 1478 1481 1484 1487 1490 1493 1496 1500 1503 1506 1509 1512 1515 1517 1519 1521 1524 1526 1528 1530 1533 1535 1537 1539 1541 1543 1544 1545 1545 1546 1547 1549 1550 1551 1552 1553 1554 1555 1556 1557 1558 1559 1559 1559 1559 1559 1559 1560 1560 1559 1559 1559 1559 1559 1559 1559
1433 1433 1434 1435 1434 1434 1435 1436 1437 1438 1438 1439 1440 1440 1441 1441 1442 1443 1445 1445 1446 1448 1451 1455 1458 1460 1463 1468 1472 1474 1475 1479 1482 1485 1487 1490 1494 1497 1500 1504 1507 1509 1512 1515 1517 1520 1522 1524 1527 1529 1531 1534 1536 1538 1540 1542 1544 1545 1546 1547 1547 1548 1549 1550 1552 1553 1554 1555 1556 1557 1558 1559 1560 1560 1560 1560 1560 1559 1560 1560 1560 1560 1560 1561 1561 1561 1561
1433 1434 1434 1435 1435 1436 1436 1437 1438 1439 1439 1440 1441 1441 1442 1442 1443 1445 1447 1448 1448 1449 1451 1454 1459 1463 1465 1468 1472 1476 1477 1480 1483 1485 1488 1491 1494 1498 1501 1505 1508 1510 1513 1515 1518 1520 1522 1525 1528 1530 1532 1534 1537 1539 1541 1543 1545 1546 1547 1548 1549 1550 1551 1552 1552 1554 1555 1556 1557 1559 1560 1560 1561 1561 1562 1562 1561 1560 1560 1560 1561 1562 1562 1562 1563 1563 1562
1434 1435 1435 1436 1437 1438 1438 1439 1439 1439 1440 1441 1442 1442 1443 1443 1444 1445 1448 1449 1450 1452 1455 1457 1461 1465 1468 1470 1474 1478 1480 1481 1483 1486 1489 1491 1495 1499 1502 1505 1508 1511 1514 1516 1519 1521 1523 1526 1529 1531 1533 1535 1538 1540 1542 1544 1545 1547 1548 1549 1550 1551 1552 1553 1554 1555 1556 1557 1559 1560 1561 1561 1562 1563 1563 1563 1563 1562 1562 1562 1562 1563 1563 1564 1564 1564 1564
1435 1437 1437 1437 1437 1438 1439 1440 1440 1441 1441 1442 1443 1443 1444 1445 1446 1447 1448 1451 1452 1454 1458 1461 1462 1464 1468 1471 1474 1478 1481 1482 1484 1488 1491 1494 1497 1500 1503 1506 1510 1512 1515 1517 1519 1522 1525 1527 1530 1532 1534 1536 1538 1540 1542 1544 1546 1547 1549 1550 1551 1552 1553 1554 1555 1556 1557 1559 1560 1561 1562 1562 1563 1563 1564 1564 1564 1564 1564 1564 1564 1564 1565 1565 1565 1565 1565
1437 1438 1437 1437 1438 1439 1440 1441 1441 1442 1443 1443 1444 1445 1445 1446 1448 1449 1450 1452 1454 1456 1459 1462 1463 1465 1468 1471 1473 1476 1479 1482 1486 1489 1492 1496 1499 1501 1505 1508 1511 1513 1516 1518 1520 1523 1525 1528 1530 1533 1535 1537 1539 1541 1543 1545 1546 1548 1549 1550 1552 1552 1553 1555 1556 1557 1559 1560 1561 1562 1562 1563 1563 1564 1564 1565 1565 1565 1565 1565 1566 1566 1566 1566 1566 1567 1566
1439 1439 1438 1439 1440 1440 1441 1442 1442 1443 1444 1445 1446 1447 1447 1448 1449 1451 1452 1454 1456 1458 1459 1462 1464 1467 1470 1472 1474 1476 1479 1482 1486 1489 1493 1496 1500 1503 1506 1508 1511 1514 1516 1519 1521 1523 1526 1528 1531 1533 1535 1537 1539 1541 1543 1545 1547 1548 1550 1551 1552 1553 1554 1555 1557 1558 1559 1560 1561 1562 1563 1563 1564 1565 1565 1565 1566 1566 1566 1567 1567 1567 1568 1568 1568 1568 1568
1439 1440 1440 1440 1441 1442 1442 1443 1444 1445 1446 1447 1447 1448 1450 1450 1451 1453 1454 1456 1458 1459 1461 1463 1465 1468 1472 1475 1477 1479 1481 1483 1487 1490 1493 1497 1501 1503 1506 1508 1511 1513 1516 1518 1521 1524 1527 1529 1532 1534 1536 1538 1540 1542 1544 1545 1547 1549 1550 1551 1552 1554 1555 1556 1557 1559 1560 1561 1562 1563 1564 1564 1565 1565 1565 1566 1566 1566 1567 1567 1568 1568 1569 1569 1569 1569 1569
1440 1442 1442 1442 1443 1444 1444 1445 1446 1446 1447 1449 1449 1450 1451 1452 1453 1454 1456 1458 1459 1461 1463 1465 1467 1470 1473 1476 1478 1481 1483 1486 1488 1492 1495 1498 1501 1504 1506 1509 1512 1514 1517 1519 1522 1524 1527 1530 1532 1534 1536 1538 1540 1542 1544 1546 1547 1549 1550 1551 1552 1554 1555 1557 1558 1559 1561 1562 1563 1564 1564 1565 1565 1565 1566 1566 1567 1567 1568 1568 1569 1569 1569 1570 1570 1570 1570
1441 1443 1444 1444 1444 1445 1446 1446 1447 1448 1448 1450 1451 1451 1452 1454 1455 1456 1457 1459 1461 1463 1465 1467 1469 1471 1474 1476 1479 1482 1484 1487 1490 1493 1496 1499 1502 1504 1507 1510 1513 1516 1518 1521 1523 1525 1528 1530 1532 1534 1536 1538 1540 1542 1544 1546 1547 1549 1550 1551 1552 1554 1555 1557 1558 1560 1561 1562 1563 1564 1565 1565 1566 1566 1566 1567 1567 1568 1568 1569 1569 1570 1570 1570 1571 1570 1570
1442 1443 1444 1444 1444 1445 1446 1447 1448 1449 1450 1451 1452 1453 1454 1455 1456 1458 1459 1461 1463 1465 1466 1468 1470 1473 1475 1477 1480 1482 1485 1488 1490 1493 1496 1499 1502 1505 1508 1511 1514 1517 1520 1522 1523 1526 1528 1530 1532 1534 1536 1538 1540 1542 1544 1546 1548 1549 1550 1551 1552 1554 1555 1557 1558 1560 1561 1562 1563 1564 1565 1565 1566 1566 1567 1567 1568 1568 1569 1569 1570 1570 1570 1571 1571 1571 1571
1443 1444 1445 1445 1445 1446 1447 1447 1448 1449 1450 1452 1453 1454 1456 1457 1458 1459 1461 1462 1464 1466 1468 1470 1472 1474 1476 1478 1481 1483 1486 1488 1490 1493 1496 1499 1503 1506 1509 1512 1515 1517 1520 1522 1524 1526 1528 1530 1532 1534 1536 1538 1540 1542 1544 1546 1547 1548 1549 1551 1552 1554 1555 1557 1558 1560 1561 1562 1563 1564 1565 1565 1566 1566 1567 1568 1568 1569 1569 1570 1570 1570 1570 1571 1571 1571 1571
1444 1444 1445 1446 1447 1448 1449 1449 1450 1451 1451 1453 1454 1456 1457 1459 1460 1461 1462 1464 1466 1467 1469 1471 1474 1476 1478 1480 1482 1484 1487 1489 1492 1494 1497 1500 1503 1507 1509 1512 1515 1517 1519 1521 1524 1526 1528 1530 1532 1534 1536 1538 1540 1542 1543 1545 1546 1548 1549 1551 1552 1554 1555 1557 1558 1560 1561 1562 1563 1564 1564 1565 1566 1566 1567 1568 1568 1569 1569 1570 1570 1570 1570 1570 1570 1570 1570
1444 1445 1446 1446 1447 1449 1450 1451 1452 1452 1453 1454 1456 1457 1458 1460 1461 1463 1464 1466 1467 1469 1471 1473 1475 1477 1479 1481 1484 1486 1489 1491 1493 1495 1499 1502 1505 1507 1510 1512 1515 1517 1519 1521 1523 1525 1527 1530 1532 1534 1536 1538 1539 1541 1543 1544 1546 1547 1549 1551 1552 1554 1555 1556 1558 1559 1560 1561 1563 1563 1564 1565 1565 1566 1566 1567 1568 1568 1569 1569 1569 1570 1570 1570 1570 1570 1569
1444 1445 1446 1447 1448 1450 1451 1452 1453 1454 1455 1456 1457 1458 1460 1461 1462 1464 1466 1467 1469 1470 1472 1474 1476 1478 1480 1483 1485 1488 1490 1492 1494 1497 1500 1503 1505 1508 1510 1512 1514 1517 1519 1521 1523 1525 1527 1529 1532 1534 1535 1537 1539 1541 1542 1544 1546 1547 1549 1550 1552 1554 1555 1556 1558 1559 1560 1561 1562 1563 1563 1564 1564 1565 1566 1566 1567 1568 1568 1568 1569 1569 1569 1569 1569 1569 1568
1444 1445 1446 1447 1449 1450 1451 1453 1454 1455 1456 1458 1458 1460 1461 1462 1464 1465 1467 1468 1470 1472 1473 1475 1477 1479 1481 1484 1486 1488 1491 1493 1496 1499 1501 1504 1506 1509 1511 1513 1515 1518 1520 1522 1523 1525 1527 1529 1531 1533 1535 1537 1539 1541 1542 1544 1545 1547 1549 1550 1552 1553 1555 1556 1557 1558 1559 1560 1561 1562 1563 1563 1564 1565 1565 1566 1567 1567 1567 1568 1568 1568 1568 1568 1568 1567 1567
1445 1446 1447 1448 1449 1450 1452 1453 1455 1456 1457 1459 1460 1461 1462 1463 1465 1466 1468 1469 1471 1473 1474 1476 1478 1480 1482 1484 1486 1489 1492 1494 1497 1499 1502 1504 1507 1510 1512 1514 1516 1518 1520 1522 1523 1525 1527 1529 1531 1533 1535 1537 1538 1540 1542 1543 1545 1547 1548 1550 1551 1553 1554 1555 1556 1557 1558 1559 1560 1561 1562 1562 1563 1564 1564 1565 1566 1566 1566 1567 1567 1567 1567 1567 1566 1566 1566
1445 1446 1447 1448 1450 1451 1452 1454 1455 1457 1458 1459 1461 1462 1463 1464 1466 1467 1469 1470 1472 1473 1475 1477 1478 1480 1483 1485 1487 1490 1492 1495 1498 1500 1502 1505 1507 1509 1511 1513 1516 1518 1520 1521 1523 1524 1526 1528 1530 1532 1534 1536 1538 1540 1541 1543 1545 1546 1548 1549 1551 1552 1553 1554 1555 1556 1557 1558 1559 1560 1560 1561 1562 1563 1563 1564 1564 1565 1565 1565 1565 1565 1565 1565 1565 1565 1565
1445 1446 1447 1449 1450 1451 1453 1454 1456 1457 1458 1460 1461 1462 1463 1465 1466 1468 1469 1470 1472 1474 1476 1478 1479 1481 1484 1486 1489 1491 1493 1496 1498 1501 1503 1505 1507 1509 1511 1513 1516 1518 1519 1521 1523 1524 1526 1528 1529 1531 1533 1535 1537 1539 1541 1543 1544 1546 1547 1549 1550 1552 1553 1554 1555 1555 1556 1557 1558 1558 1559 1560 1561 1561 1562 1562 1563 1563 1563 1563 1563 1563 1563 1563 1563 1563 1563
1446 1447 1448 1449 1450 1452 1453 1455 1456 1458 1459 1460 1462 1463 1464 1465 1467 1468 1469 1471 1472 1474 1476 1478 1480 1482 1484 1486 1489 1491 1494 1496 1499 1501 1503 1505 1508 1510 1511 1513 1515 1517 1519 1521 1522 1524 1526 1527 1529 1531 1533 1535 1537 1539 1540 1542 1544 1545 1547 1548 1549 1550 1552 1553 1553 1554 1555 1556 1556 1557 1558 1558 1559 1559 1560 1560 1561 1561 1561 1561 1561 1561 1561 1561 1561 1561 1561
1446 1447 1448 1449 1451 1452 1453 1455 1456 1458 1459 1460 1462 1463 1465 1466 1467 1468 1469 1471 1472 1474 1476 1478 1480 1482 1484 1486 1489 1491 1494 1496 1499 1501 1503 1505 1508 1510 1512 1514 1515 1517 1518 1520 1522 1524 1526 1527 1529 1531 1533 1535 1536 1538 1540 1541 1543 1544 1545 1547 1548 1549 1550 1551 1552 1553 1553 1554 1555 1555 1556 1556 1557 1558 1558 1558 1559 1559 1559 1559 1559 1559 1559 1559 1559 1559 1559
1447 1448 1449 1450 1451 1452 1454 1455 1456 1457 1459 1460 1462 1464 1465 1466 1467 1469 1470 1471 1472 1474 1476 1479 1480 1482 1484 1486 1489 1491 1494 1496 1498 1500 1502 1504 1506 1508 1511 1513 1515 1517 1518 1520 1522 1523 1525 1527 1529 1531 1532 1534 1536 1537 1539 1540 1542 1543 1544 1545 1546 1547 1548 1549 1550 1550 1551 1552 1552 1553 1554 1554 1555 1555 1556 1556 1556 1557 1557 1557 1557 1557 1557 1557 1557 1557 1557
1447 1448 1449 1450 1451 1453 1454 1455 1456 1458 1459 1461 1462 1463 1465 1466 1468 1469 1470 1471 1473 1475 1477 1479 1481 1483 1485 1487 1489 1492 1494 1496 1498 1500 1502 1504 1506 1508 1510 1512 1514 1516 1518 1519 1521 1523 1525 1526 1528 1530 1531 1533 1534 1536 1537 1538 1540 1541 1542 1543 1544 1545 1546 1547 1548 1548 1549 1549 1550 1551 1551 1552 1552 1553 1553 1554 1554 1554 1554 1554 1555 1555 1555 1555 1555 1555 1554
1447 1448 1449 1450 1452 1453 1454 1455 1457 1458 1460 1461 1462 1463 1465 1466 1468 1469 1471 1472 1474 1476 1478 1480 1482 1484 1486 1488 1489 1491 1493 1496 1498 1500 1502 1504 1506 1508 1510 1512 1513 1515 1517 1518 1520 1522 1523 1525 1527 1528 1530 1531 1533 1534 1535 1536 1538 1539 1540 1541 1542 1543 1544 1545 1545 1546 1546 1547 1548 1548 1549 1549 1550 1550 1551 1551 1551 1551 1551 1552 1552 1552 1552 1552 1552 1552 1552
1447 1448 1449 1451 1452 1453 1454 1456 1457 1459 1460 1461 1462 1464 1465 1467 1468 1470 1471 1473 1475 1477 1479 1481 1483 1484 1486 1488 1490 1491 1493 1495 1497 1499 1501 1504 1506 1507 1509 1511 1513 1514 1516 1517 1519 1520 1522 1523 1525 1526 1528 1529 1530 1532 1533 1534 1535 1536 1537 1538 1539 1540 1541 1542 1543 1543 1544 1545 1545 1546 1546 1547 1547 1547 1548 1548 1548 1548 1548 1549 1549 1549 1549 1549 1549 1549 1549
1447 1448 1450 1451 1452 1453 1455 1456 1457 1459 1460 1461 1463 1464 1466 1467 1469 1470 1472 1474 1475 1477 1479 1481 1482 1484 1486 1487 1489 1491 1493 1495 1497 1499 1500 1502 1504 1506 1508 1510 1512 1513 1515 1516 1518 1519 1521 1522 1523 1525 1526 1527 1528 1529 1530 1531 1532 1533 1534 1535 1536 1537 1538 1539 1540 1541 1541 1542 1542 1543 1543 1544 1544 1544 1545 1545 1545 1545 1545 1545 1545 1546 1546 1546 1545 1545 1545
1447 1448 1449 1451 1452 1454 1455 1456 1458 1459 1460 1462 1463 1465 1466 1468 1469 1471 1472 1474 1476 1477 1479 1480 1482 1484 1485 1487 1489 1491 1493 1495 1497 1498 1500 1502 1504 1505 1507 1509 1511 1512 1514 1515 1516 1518 1519 1520 1522 1523 1523 1524 1525 1527 1528 1529 1530 1531 1531 1532 1533 1534 1535 1536 1537 1538 1538 1539 1539 1540 1540 1541 1541 1541 1541 1542 1542 1542 1542 1542 1542 1542 1542 1542 1541 1541 1541
1447 1448 1449 1451 1452 1454 1455 1457 1458 1459 1461 1462 1463 1465 1467 1468 1470 1471 1473 1474 1476 1477 1478 1480 1481 1483 1484 1486 1488 1490 1492 1494 1496 1498 1499 1501 1503 1504 1506 1508 1510 1511 1512 1514 1515 1516 1518 1519 1520 1521 1522 1523 1524 1525 1526 1527 1528 1528 1529 1530 1531 1531 1532 1533 1534 1535 1535 1536 1536 1537 1537 1537 1538 1538 1538 1538 1538 1538 1538 1538 1538 1538 1538 1538 1537 1537 1537
1447 1448 1449 1451 1453 1454 1456 1457 1458 1459 1461 1462 1464 1465 1467 1468 1470 1471 1473 1474 1476 1477 1478 1479 1481 1482 1484 1485 1487 1489 1491 1493 1495 1496 1498 1500 1502 1503 1505 1507 1508 1510 1511 1512 1514 1515 1516 1517 1518 1519 1520 1521 1522 1523 1524 1524 1525 1526 1527 1527 1528 1529 1530 1530 1531 1532 1532 1533 1533 1533 1533 1534 1534 1534 1534 1534 1534 1534 1534 1534 1534 1534 1533 1533 1533 1533 1532